This is the latest recevied weather packets stored in our database for station/object VK2EHQ. If no packets are shown the sender has not sent any weather packets the latest 10 day(s).
| Time | Temp. | Humidity | Pressure | Rain* | Wind** | Luminosity | Snow |
|---|---|---|---|---|---|---|---|
| 1788139863 | 71° F | 52% | 773.6 mmHg | 0 in | - | - | - |
| 1788139263 | 71° F | 52% | 773.8 mmHg | 0 in | - | - | - |
| 1788138663 | 71° F | 48% | 773.8 mmHg | 0 in | - | - | - |
| 1788138063 | 70° F | 48% | 773.9 mmHg | 0 in | - | - | - |
| 1788137462 | 69° F | 55% | 773.9 mmHg | 0 in | - | - | - |
| 1788136862 | 67° F | 57% | 774 mmHg | 0 in | - | - | - |
| 1788136262 | 66° F | 59% | 774.1 mmHg | 0 in | - | - | - |
| 1788135662 | 66° F | 58% | 774.1 mmHg | 0 in | - | - | - |
| 1788135062 | 65° F | 62% | 774.1 mmHg | 0 in | - | - | - |
| 1788134462 | 64° F | 62% | 774.1 mmHg | 0 in | - | - | - |
| 1788133862 | 63° F | 64% | 774.1 mmHg | 0 in | - | - | - |
| 1788133262 | 62° F | 65% | 774 mmHg | 0 in | - | - | - |
| 1788132662 | 61° F | 64% | 774.1 mmHg | 0 in | - | - | - |
| 1788132063 | 60° F | 62% | 774 mmHg | 0 in | - | - | - |
| 1788131462 | 60° F | 59% | 774 mmHg | 0 in | - | - | - |
| 1788130862 | 59° F | 55% | 774.1 mmHg | 0 in | - | - | - |
| 1788130262 | 58° F | 53% | 774.1 mmHg | 0 in | - | - | - |
| 1788129662 | 57° F | 50% | 774.1 mmHg | 0 in | - | - | - |
| 1788129062 | 57° F | 45% | 774.1 mmHg | 0 in | - | - | - |
| 1788128462 | 56° F | 40% | 773.8 mmHg | 0 in | - | - | - |
| 1788127861 | 55° F | 35% | 773.9 mmHg | 0 in | - | - | - |
| 1788127261 | 54° F | 32% | 773.9 mmHg | 0 in | - | - | - |
| 1788126661 | 53° F | 31% | 773.8 mmHg | 0 in | - | - | - |
| 1788126061 | 53° F | 31% | 773.7 mmHg | 0 in | - | - | - |
| 1788125461 | 52° F | 32% | 774 mmHg | 0 in | - | - | - |
* Rain latest hour (hover to see other rain measurements)
** Current wind speed in m/s (hover to see current wind gust speed)